Year,Month,Day,Hour,Minute,Value (Times are PST for temperature in C)
2015,05,30,00,00,14.90
2015,05,30,00,01,14.80
2015,05,30,00,02,14.80
2015,05,30,00,03,14.80
2015,05,30,00,04,14.70
2015,05,30,00,05,14.70
2015,05,30,00,06,14.70
2015,05,30,00,07,14.60
2015,05,30,00,08,14.60
2015,05,30,00,09,14.60
2015,05,30,00,10,14.60
2015,05,30,00,11,14.50
2015,05,30,00,12,14.50
2015,05,30,00,13,14.50
2015,05,30,00,14,14.50
2015,05,30,00,15,14.40
2015,05,30,00,16,14.40
2015,05,30,00,17,14.40
2015,05,30,00,18,14.40
2015,05,30,00,19,14.40
2015,05,30,00,20,14.40
2015,05,30,00,21,14.40
2015,05,30,00,22,14.40
2015,05,30,00,23,14.40
2015,05,30,00,24,14.40
2015,05,30,00,25,14.40
2015,05,30,00,26,14.40
2015,05,30,00,27,14.40
2015,05,30,00,28,14.40
2015,05,30,00,29,14.40
2015,05,30,00,30,14.40
2015,05,30,00,31,14.40
2015,05,30,00,32,14.40
2015,05,30,00,33,14.40
2015,05,30,00,34,14.40
2015,05,30,00,35,14.40
2015,05,30,00,36,14.40
2015,05,30,00,37,14.30
2015,05,30,00,38,14.30
2015,05,30,00,39,14.30
2015,05,30,00,40,14.30
2015,05,30,00,41,14.30
2015,05,30,00,42,14.30
2015,05,30,00,43,14.30
2015,05,30,00,44,14.30
2015,05,30,00,45,14.30
2015,05,30,00,46,14.30
2015,05,30,00,47,14.30
2015,05,30,00,48,14.30
2015,05,30,00,49,14.30
2015,05,30,00,50,14.20
2015,05,30,00,51,14.20
2015,05,30,00,52,14.20
2015,05,30,00,53,14.20
2015,05,30,00,54,14.20
2015,05,30,00,55,14.20
2015,05,30,00,56,14.20
2015,05,30,00,57,14.10
2015,05,30,00,58,14.10
2015,05,30,00,59,14.10
2015,05,30,01,00,14.10
2015,05,30,01,01,14.00
2015,05,30,01,02,14.00
2015,05,30,01,03,14.00
2015,05,30,01,04,13.90
2015,05,30,01,05,13.90
2015,05,30,01,06,13.90
2015,05,30,01,07,13.90
2015,05,30,01,08,13.90
2015,05,30,01,09,13.80
2015,05,30,01,10,13.80
2015,05,30,01,11,13.80
2015,05,30,01,12,13.70
2015,05,30,01,13,13.70
2015,05,30,01,14,13.70
2015,05,30,01,15,13.70
2015,05,30,01,16,13.70
2015,05,30,01,17,13.70
2015,05,30,01,18,13.60
2015,05,30,01,19,13.60
2015,05,30,01,20,13.60
2015,05,30,01,21,13.50
2015,05,30,01,22,13.50
2015,05,30,01,23,13.40
2015,05,30,01,24,13.40
2015,05,30,01,25,13.40
2015,05,30,01,26,13.30
2015,05,30,01,27,13.30
2015,05,30,01,28,13.30
2015,05,30,01,29,13.20
2015,05,30,01,30,13.20
2015,05,30,01,31,13.20
2015,05,30,01,32,13.20
2015,05,30,01,33,13.10
2015,05,30,01,34,13.10
2015,05,30,01,35,13.10
2015,05,30,01,36,13.10
2015,05,30,01,37,13.00
2015,05,30,01,38,13.00
2015,05,30,01,39,12.90
2015,05,30,01,40,12.90
2015,05,30,01,41,12.90
2015,05,30,01,42,12.90
2015,05,30,01,43,12.80
2015,05,30,01,44,12.80
2015,05,30,01,45,12.80
2015,05,30,01,46,12.80
2015,05,30,01,47,12.70
2015,05,30,01,48,12.70
2015,05,30,01,49,12.70
2015,05,30,01,50,12.70
2015,05,30,01,51,12.70
2015,05,30,01,52,12.60
2015,05,30,01,53,12.60
2015,05,30,01,54,12.60
2015,05,30,01,55,12.60
2015,05,30,01,56,12.60
2015,05,30,01,57,12.60
2015,05,30,01,58,12.50
2015,05,30,01,59,12.50
2015,05,30,02,00,12.50
2015,05,30,02,01,12.50
2015,05,30,02,02,12.50
2015,05,30,02,03,12.40
2015,05,30,02,04,12.40
2015,05,30,02,05,12.40
2015,05,30,02,06,12.40
2015,05,30,02,07,12.40
2015,05,30,02,08,12.40
2015,05,30,02,09,12.40
2015,05,30,02,10,12.40
2015,05,30,02,11,12.40
2015,05,30,02,12,12.40
2015,05,30,02,13,12.40
2015,05,30,02,14,12.40
2015,05,30,02,15,12.40
2015,05,30,02,16,12.40
2015,05,30,02,17,12.40
2015,05,30,02,18,12.40
2015,05,30,02,19,12.40
2015,05,30,02,20,12.30
2015,05,30,02,21,12.30
2015,05,30,02,22,12.30
2015,05,30,02,23,12.30
2015,05,30,02,24,12.30
2015,05,30,02,25,12.30
2015,05,30,02,26,12.30
2015,05,30,02,27,12.20
2015,05,30,02,28,12.20
2015,05,30,02,29,12.20
2015,05,30,02,30,12.20
2015,05,30,02,31,12.10
2015,05,30,02,32,12.10
2015,05,30,02,33,12.10
2015,05,30,02,34,12.00
2015,05,30,02,35,12.00
2015,05,30,02,36,11.90
2015,05,30,02,37,11.90
2015,05,30,02,38,11.90
2015,05,30,02,39,11.80
2015,05,30,02,40,11.80
2015,05,30,02,41,11.80
2015,05,30,02,42,11.80
2015,05,30,02,43,11.70
2015,05,30,02,44,11.70
2015,05,30,02,45,11.70
2015,05,30,02,46,11.70
2015,05,30,02,47,11.60
2015,05,30,02,48,11.60
2015,05,30,02,49,11.60
2015,05,30,02,50,11.60
2015,05,30,02,51,11.60
2015,05,30,02,52,11.50
2015,05,30,02,53,11.50
2015,05,30,02,54,11.50
2015,05,30,02,55,11.40
2015,05,30,02,56,11.40
2015,05,30,02,57,11.40
2015,05,30,02,58,11.40
2015,05,30,02,59,11.40
2015,05,30,03,00,11.30
2015,05,30,03,01,11.30
2015,05,30,03,02,11.30
2015,05,30,03,03,11.30
2015,05,30,03,04,11.30
2015,05,30,03,05,11.30
2015,05,30,03,06,11.20
2015,05,30,03,07,11.20
2015,05,30,03,08,11.20
2015,05,30,03,09,11.20
2015,05,30,03,10,11.10
2015,05,30,03,11,11.10
2015,05,30,03,12,11.10
2015,05,30,03,13,11.10
2015,05,30,03,14,11.10
2015,05,30,03,15,11.00
2015,05,30,03,16,11.00
2015,05,30,03,17,11.00
2015,05,30,03,18,10.90
2015,05,30,03,19,10.90
2015,05,30,03,20,10.90
2015,05,30,03,21,10.90
2015,05,30,03,22,10.80
2015,05,30,03,23,10.80
2015,05,30,03,24,10.80
2015,05,30,03,25,10.80
2015,05,30,03,26,10.80
2015,05,30,03,27,10.80
2015,05,30,03,28,10.80
2015,05,30,03,29,10.80
2015,05,30,03,30,10.70
2015,05,30,03,31,10.70
2015,05,30,03,32,10.70
2015,05,30,03,33,10.70
2015,05,30,03,34,10.70
2015,05,30,03,35,10.70
2015,05,30,03,36,10.70
2015,05,30,03,37,10.60
2015,05,30,03,38,10.60
2015,05,30,03,39,10.60
2015,05,30,03,40,10.60
2015,05,30,03,41,10.60
2015,05,30,03,42,10.60
2015,05,30,03,43,10.50
2015,05,30,03,44,10.50
2015,05,30,03,45,10.50
2015,05,30,03,46,10.50
2015,05,30,03,47,10.40
2015,05,30,03,48,10.40
2015,05,30,03,49,10.40
2015,05,30,03,50,10.40
2015,05,30,03,51,10.40
2015,05,30,03,52,10.40
2015,05,30,03,53,10.40
2015,05,30,03,54,10.40
2015,05,30,03,55,10.40
2015,05,30,03,56,10.40
2015,05,30,03,57,10.30
2015,05,30,03,58,10.30
2015,05,30,03,59,10.30
2015,05,30,04,00,10.30
2015,05,30,04,01,10.30
2015,05,30,04,02,10.30
2015,05,30,04,03,10.30
2015,05,30,04,04,10.30
2015,05,30,04,05,10.30
2015,05,30,04,06,10.30
2015,05,30,04,07,10.30
2015,05,30,04,08,10.30
2015,05,30,04,09,10.20
2015,05,30,04,10,10.20
2015,05,30,04,11,10.20
2015,05,30,04,12,10.20
2015,05,30,04,13,10.10
2015,05,30,04,14,10.10
2015,05,30,04,15,10.10
2015,05,30,04,16,10.10
2015,05,30,04,17,10.00
2015,05,30,04,18,10.00
2015,05,30,04,19,9.90
2015,05,30,04,20,9.90
2015,05,30,04,21,9.90
2015,05,30,04,22,9.90
2015,05,30,04,23,9.80
2015,05,30,04,24,9.80
2015,05,30,04,25,9.80
2015,05,30,04,26,9.80
2015,05,30,04,27,9.80
2015,05,30,04,28,9.80
2015,05,30,04,29,9.80
2015,05,30,04,30,9.80
2015,05,30,04,31,9.80
2015,05,30,04,32,9.80
2015,05,30,04,33,9.80
2015,05,30,04,34,9.70
2015,05,30,04,35,9.70
2015,05,30,04,36,9.70
2015,05,30,04,37,9.70
2015,05,30,04,38,9.70
2015,05,30,04,39,9.70
2015,05,30,04,40,9.70
2015,05,30,04,41,9.60
2015,05,30,04,42,9.60
2015,05,30,04,43,9.60
2015,05,30,04,44,9.60
2015,05,30,04,45,9.60
2015,05,30,04,46,9.60
2015,05,30,04,47,9.60
2015,05,30,04,48,9.60
2015,05,30,04,49,9.60
2015,05,30,04,50,9.60
2015,05,30,04,51,9.60
2015,05,30,04,52,9.60
2015,05,30,04,53,9.60
2015,05,30,04,54,9.60
2015,05,30,04,55,9.60
2015,05,30,04,56,9.60
2015,05,30,04,57,9.60
2015,05,30,04,58,9.60
2015,05,30,04,59,9.60
2015,05,30,05,00,9.60
2015,05,30,05,01,9.60
2015,05,30,05,02,9.60
2015,05,30,05,03,9.60
2015,05,30,05,04,9.60
2015,05,30,05,05,9.60
2015,05,30,05,06,9.60
2015,05,30,05,07,9.60
2015,05,30,05,08,9.50
2015,05,30,05,09,9.50
2015,05,30,05,10,9.50
2015,05,30,05,11,9.50
2015,05,30,05,12,9.40
2015,05,30,05,13,9.40
2015,05,30,05,14,9.40
2015,05,30,05,15,9.40
2015,05,30,05,16,9.40
2015,05,30,05,17,9.40
2015,05,30,05,18,9.30
2015,05,30,05,19,9.30
2015,05,30,05,20,9.30
2015,05,30,05,21,9.30
2015,05,30,05,22,9.30
2015,05,30,05,23,9.30
2015,05,30,05,24,9.30
2015,05,30,05,25,9.30
2015,05,30,05,26,9.20
2015,05,30,05,27,9.20
2015,05,30,05,28,9.20
2015,05,30,05,29,9.20
2015,05,30,05,30,9.20
2015,05,30,05,31,9.20
2015,05,30,05,32,9.20
2015,05,30,05,33,9.20
2015,05,30,05,34,9.20
2015,05,30,05,35,9.10
2015,05,30,05,36,9.10
2015,05,30,05,37,9.10
2015,05,30,05,38,9.10
2015,05,30,05,39,9.10
2015,05,30,05,40,9.10
2015,05,30,05,41,9.10
2015,05,30,05,42,9.10
2015,05,30,05,43,9.10
2015,05,30,05,44,9.10
2015,05,30,05,45,9.10
2015,05,30,05,46,9.10
2015,05,30,05,47,9.10
2015,05,30,05,48,9.10
2015,05,30,05,49,9.10
2015,05,30,05,50,9.10
2015,05,30,05,51,9.10
2015,05,30,05,52,9.20
2015,05,30,05,53,9.20
2015,05,30,05,54,9.20
2015,05,30,05,55,9.20
2015,05,30,05,56,9.20
2015,05,30,05,57,9.20
2015,05,30,05,58,9.30
2015,05,30,05,59,9.30
2015,05,30,06,00,9.30
2015,05,30,06,01,9.40
2015,05,30,06,02,9.40
2015,05,30,06,03,9.50
2015,05,30,06,04,9.60
2015,05,30,06,05,9.60
2015,05,30,06,06,9.70
2015,05,30,06,07,9.80
2015,05,30,06,08,9.80
2015,05,30,06,09,9.90
2015,05,30,06,10,10.00
2015,05,30,06,11,10.00
2015,05,30,06,12,10.10
2015,05,30,06,13,10.10
2015,05,30,06,14,10.20
2015,05,30,06,15,10.20
2015,05,30,06,16,10.20
2015,05,30,06,17,10.30
2015,05,30,06,18,10.30
2015,05,30,06,19,10.30
2015,05,30,06,20,10.30
2015,05,30,06,21,10.40
2015,05,30,06,22,10.40
2015,05,30,06,23,10.40
2015,05,30,06,24,10.50
2015,05,30,06,25,10.50
2015,05,30,06,26,10.60
2015,05,30,06,27,10.60
2015,05,30,06,28,10.60
2015,05,30,06,29,10.70
2015,05,30,06,30,10.70
2015,05,30,06,31,10.80
2015,05,30,06,32,10.80
2015,05,30,06,33,10.90
2015,05,30,06,34,10.90
2015,05,30,06,35,11.00
2015,05,30,06,36,11.10
2015,05,30,06,37,11.10
2015,05,30,06,38,11.10
2015,05,30,06,39,11.20
2015,05,30,06,40,11.20
2015,05,30,06,41,11.20
2015,05,30,06,42,11.20
2015,05,30,06,43,11.30
2015,05,30,06,44,11.30
2015,05,30,06,45,11.40
2015,05,30,06,46,11.50
2015,05,30,06,47,11.50
2015,05,30,06,48,11.60
2015,05,30,06,49,11.70
2015,05,30,06,50,11.70
2015,05,30,06,51,11.80
2015,05,30,06,52,12.00
2015,05,30,06,53,12.10
2015,05,30,06,54,12.20
2015,05,30,06,55,12.30
2015,05,30,06,56,12.40
2015,05,30,06,57,12.50
2015,05,30,06,58,12.50
2015,05,30,06,59,12.50
2015,05,30,07,00,12.60
2015,05,30,07,01,12.60
2015,05,30,07,02,12.50
2015,05,30,07,03,12.50
2015,05,30,07,04,12.50
2015,05,30,07,05,12.50
2015,05,30,07,06,12.60
2015,05,30,07,07,12.60
2015,05,30,07,08,12.60
2015,05,30,07,09,12.60
2015,05,30,07,10,12.60
2015,05,30,07,11,12.60
2015,05,30,07,12,12.60
2015,05,30,07,13,12.60
2015,05,30,07,14,12.60
2015,05,30,07,15,12.60
2015,05,30,07,16,12.60
2015,05,30,07,17,12.60
2015,05,30,07,18,12.60
2015,05,30,07,19,12.70
2015,05,30,07,20,12.70
2015,05,30,07,21,12.70
2015,05,30,07,22,12.80
2015,05,30,07,23,12.80
2015,05,30,07,24,12.90
2015,05,30,07,25,12.90
2015,05,30,07,26,13.00
2015,05,30,07,27,13.20
2015,05,30,07,28,13.30
2015,05,30,07,29,13.40
2015,05,30,07,30,13.50
2015,05,30,07,31,13.60
2015,05,30,07,32,13.70
2015,05,30,07,33,13.80
2015,05,30,07,34,13.90
2015,05,30,07,35,13.90
2015,05,30,07,36,14.00
2015,05,30,07,37,14.10
2015,05,30,07,38,14.10
2015,05,30,07,39,14.20
2015,05,30,07,40,14.20
2015,05,30,07,41,14.20
2015,05,30,07,42,14.20
2015,05,30,07,43,14.30
2015,05,30,07,44,14.30
2015,05,30,07,45,14.30
2015,05,30,07,46,14.30
2015,05,30,07,47,14.40
2015,05,30,07,48,14.40
2015,05,30,07,49,14.50
2015,05,30,07,50,14.60
2015,05,30,07,51,14.60
2015,05,30,07,52,14.70
2015,05,30,07,53,14.60
2015,05,30,07,54,14.60
2015,05,30,07,55,14.60
2015,05,30,07,56,14.60
2015,05,30,07,57,14.60
2015,05,30,07,58,14.50
2015,05,30,07,59,14.40
2015,05,30,08,00,14.40
2015,05,30,08,01,14.30
2015,05,30,08,02,14.30
2015,05,30,08,03,14.30
2015,05,30,08,04,14.30
2015,05,30,08,05,14.40
2015,05,30,08,06,14.40
2015,05,30,08,07,14.40
2015,05,30,08,08,14.50
2015,05,30,08,09,14.50
2015,05,30,08,10,14.50
2015,05,30,08,11,14.60
2015,05,30,08,12,14.60
2015,05,30,08,13,14.60
2015,05,30,08,14,14.70
2015,05,30,08,15,14.70
2015,05,30,08,16,14.80
2015,05,30,08,17,14.80
2015,05,30,08,18,14.90
2015,05,30,08,19,14.90
2015,05,30,08,20,14.90
2015,05,30,08,21,14.90
2015,05,30,08,22,14.90
2015,05,30,08,23,15.00
2015,05,30,08,24,15.00
2015,05,30,08,25,15.00
2015,05,30,08,26,15.10
2015,05,30,08,27,15.10
2015,05,30,08,28,15.10
2015,05,30,08,29,15.10
2015,05,30,08,30,15.10
2015,05,30,08,31,15.10
2015,05,30,08,32,15.20
2015,05,30,08,33,15.20
2015,05,30,08,34,15.20
2015,05,30,08,35,15.20
2015,05,30,08,36,15.20
2015,05,30,08,37,15.20
2015,05,30,08,38,15.10
2015,05,30,08,39,15.10
2015,05,30,08,40,15.10
2015,05,30,08,41,15.10
2015,05,30,08,42,15.10
2015,05,30,08,43,15.10
2015,05,30,08,44,15.00
2015,05,30,08,45,15.00
2015,05,30,08,46,15.00
2015,05,30,08,47,15.00
2015,05,30,08,48,15.00
2015,05,30,08,49,15.00
2015,05,30,08,50,15.10
2015,05,30,08,51,15.10
2015,05,30,08,52,15.10
2015,05,30,08,53,15.20
2015,05,30,08,54,15.20
2015,05,30,08,55,15.20
2015,05,30,08,56,15.20
2015,05,30,08,57,15.20
2015,05,30,08,58,15.30
2015,05,30,08,59,15.30
2015,05,30,09,00,15.30
2015,05,30,09,01,15.30
2015,05,30,09,02,15.20
2015,05,30,09,03,15.20
2015,05,30,09,04,15.30
2015,05,30,09,05,15.30
2015,05,30,09,06,15.50
2015,05,30,09,07,15.60
2015,05,30,09,08,15.70
2015,05,30,09,09,15.80
2015,05,30,09,10,15.80
2015,05,30,09,11,15.80
2015,05,30,09,12,15.90
2015,05,30,09,13,15.90
2015,05,30,09,14,16.00
2015,05,30,09,15,16.00
2015,05,30,09,16,16.10
2015,05,30,09,17,16.20
2015,05,30,09,18,16.20
2015,05,30,09,19,16.30
2015,05,30,09,20,16.40
2015,05,30,09,21,16.50
2015,05,30,09,22,16.60
2015,05,30,09,23,16.70
2015,05,30,09,24,16.80
2015,05,30,09,25,16.80
2015,05,30,09,26,16.80
2015,05,30,09,27,16.80
2015,05,30,09,28,16.80
2015,05,30,09,29,16.90
2015,05,30,09,30,17.00
2015,05,30,09,31,17.10
2015,05,30,09,32,17.20
2015,05,30,09,33,17.20
2015,05,30,09,34,17.30
2015,05,30,09,35,17.30
2015,05,30,09,36,17.40
2015,05,30,09,37,17.50
2015,05,30,09,38,17.60
2015,05,30,09,39,17.60
2015,05,30,09,40,17.60
2015,05,30,09,41,17.70
2015,05,30,09,42,17.70
2015,05,30,09,43,17.70
2015,05,30,09,44,17.70
2015,05,30,09,45,17.70
2015,05,30,09,46,17.70
2015,05,30,09,47,17.80
2015,05,30,09,48,17.80
2015,05,30,09,49,17.80
2015,05,30,09,50,17.80
2015,05,30,09,51,17.90
2015,05,30,09,52,17.90
2015,05,30,09,53,17.90
2015,05,30,09,54,18.00
2015,05,30,09,55,18.00
2015,05,30,09,56,18.00
2015,05,30,09,57,18.10
2015,05,30,09,58,18.00
2015,05,30,09,59,18.00
2015,05,30,10,00,17.90
2015,05,30,10,01,17.90
2015,05,30,10,02,17.90
2015,05,30,10,03,18.00
2015,05,30,10,04,18.10
2015,05,30,10,05,18.20
2015,05,30,10,06,18.20
2015,05,30,10,07,18.30
2015,05,30,10,08,18.30
2015,05,30,10,09,18.30
2015,05,30,10,10,18.30
2015,05,30,10,11,18.20
2015,05,30,10,12,18.30
2015,05,30,10,13,18.30
2015,05,30,10,14,18.30
2015,05,30,10,15,18.30
2015,05,30,10,16,18.20
2015,05,30,10,17,18.20
2015,05,30,10,18,18.20
2015,05,30,10,19,18.20
2015,05,30,10,20,18.10
2015,05,30,10,21,18.10
2015,05,30,10,22,18.10
2015,05,30,10,23,18.10
2015,05,30,10,24,18.10
2015,05,30,10,25,18.10
2015,05,30,10,26,18.10
2015,05,30,10,27,18.10
2015,05,30,10,28,18.10
2015,05,30,10,29,18.10
2015,05,30,10,30,18.00
2015,05,30,10,31,18.00
2015,05,30,10,32,18.00
2015,05,30,10,33,18.00
2015,05,30,10,34,18.10
2015,05,30,10,35,18.10
2015,05,30,10,36,18.20
2015,05,30,10,37,18.30
2015,05,30,10,38,18.30
2015,05,30,10,39,18.30
2015,05,30,10,40,18.30
2015,05,30,10,41,18.30
2015,05,30,10,42,18.20
2015,05,30,10,43,18.20
2015,05,30,10,44,18.20
2015,05,30,10,45,18.20
2015,05,30,10,46,18.30
2015,05,30,10,47,18.30
2015,05,30,10,48,18.40
2015,05,30,10,49,18.40
2015,05,30,10,50,18.40
2015,05,30,10,51,18.40
2015,05,30,10,52,18.30
2015,05,30,10,53,18.30
2015,05,30,10,54,18.30
2015,05,30,10,55,18.40
2015,05,30,10,56,18.50
2015,05,30,10,57,18.50
2015,05,30,10,58,18.50
2015,05,30,10,59,18.60
2015,05,30,11,00,18.60
2015,05,30,11,01,18.60
2015,05,30,11,02,18.60
2015,05,30,11,03,18.60
2015,05,30,11,04,18.60
2015,05,30,11,05,18.70
2015,05,30,11,06,18.70
2015,05,30,11,07,18.80
2015,05,30,11,08,18.70
2015,05,30,11,09,18.70
2015,05,30,11,10,18.60
2015,05,30,11,11,18.50
2015,05,30,11,12,18.50
2015,05,30,11,13,18.50
2015,05,30,11,14,18.60
2015,05,30,11,15,18.60
2015,05,30,11,16,18.70
2015,05,30,11,17,18.80
2015,05,30,11,18,18.80
2015,05,30,11,19,18.90
2015,05,30,11,20,19.10
2015,05,30,11,21,19.20
2015,05,30,11,22,19.10
2015,05,30,11,23,19.10
2015,05,30,11,24,19.10
2015,05,30,11,25,19.00
2015,05,30,11,26,18.90
2015,05,30,11,27,18.90
2015,05,30,11,28,18.90
2015,05,30,11,29,18.80
2015,05,30,11,30,18.80
2015,05,30,11,31,18.70
2015,05,30,11,32,18.80
2015,05,30,11,33,18.70
2015,05,30,11,34,18.70
2015,05,30,11,35,18.70
2015,05,30,11,36,18.60
2015,05,30,11,37,18.60
2015,05,30,11,38,18.60
2015,05,30,11,39,18.60
2015,05,30,11,40,18.70
2015,05,30,11,41,18.80
2015,05,30,11,42,18.90
2015,05,30,11,43,18.90
2015,05,30,11,44,18.90
2015,05,30,11,45,18.90
2015,05,30,11,46,18.90
2015,05,30,11,47,18.90
2015,05,30,11,48,18.90
2015,05,30,11,49,19.00
2015,05,30,11,50,19.10
2015,05,30,11,51,19.10
2015,05,30,11,52,19.10
2015,05,30,11,53,19.10
2015,05,30,11,54,19.10
2015,05,30,11,55,19.10
2015,05,30,11,56,19.00
2015,05,30,11,57,18.90
2015,05,30,11,58,18.80
2015,05,30,11,59,18.80
2015,05,30,12,00,18.80
2015,05,30,12,01,18.80
2015,05,30,12,02,18.90
2015,05,30,12,03,19.10
2015,05,30,12,04,19.20
2015,05,30,12,05,19.30
2015,05,30,12,06,19.30
2015,05,30,12,07,19.40
2015,05,30,12,08,19.40
2015,05,30,12,09,19.40
2015,05,30,12,10,19.40
2015,05,30,12,11,19.40
2015,05,30,12,12,19.40
2015,05,30,12,13,19.50
2015,05,30,12,14,19.50
2015,05,30,12,15,19.60
2015,05,30,12,16,19.70
2015,05,30,12,17,19.70
2015,05,30,12,18,19.80
2015,05,30,12,19,19.80
2015,05,30,12,20,19.80
2015,05,30,12,21,19.80
2015,05,30,12,22,19.70
2015,05,30,12,23,19.70
2015,05,30,12,24,19.70
2015,05,30,12,25,19.70
2015,05,30,12,26,19.70
2015,05,30,12,27,19.70
2015,05,30,12,28,19.70
2015,05,30,12,29,19.70
2015,05,30,12,30,19.70
2015,05,30,12,31,19.70
2015,05,30,12,32,19.60
2015,05,30,12,33,19.60
2015,05,30,12,34,19.60
2015,05,30,12,35,19.60
2015,05,30,12,36,19.60
2015,05,30,12,37,19.70
2015,05,30,12,38,19.80
2015,05,30,12,39,19.90
2015,05,30,12,40,19.90
2015,05,30,12,41,19.90
2015,05,30,12,42,19.80
2015,05,30,12,43,19.90
2015,05,30,12,44,19.90
2015,05,30,12,45,19.90
2015,05,30,12,46,19.90
2015,05,30,12,47,20.00
2015,05,30,12,48,20.00
2015,05,30,12,49,20.10
2015,05,30,12,50,20.10
2015,05,30,12,51,20.10
2015,05,30,12,52,20.00
2015,05,30,12,53,20.00
2015,05,30,12,54,19.90
2015,05,30,12,55,19.90
2015,05,30,12,56,19.80
2015,05,30,12,57,19.80
2015,05,30,12,58,19.80
2015,05,30,12,59,19.70
2015,05,30,13,00,19.70
2015,05,30,13,01,19.70
2015,05,30,13,02,19.70
2015,05,30,13,03,19.70
2015,05,30,13,04,19.70
2015,05,30,13,05,19.70
2015,05,30,13,06,19.80
2015,05,30,13,07,19.80
2015,05,30,13,08,19.80
2015,05,30,13,09,19.80
2015,05,30,13,10,19.80
2015,05,30,13,11,19.80
2015,05,30,13,12,19.80
2015,05,30,13,13,19.70
2015,05,30,13,14,19.60
2015,05,30,13,15,19.60
2015,05,30,13,16,19.50
2015,05,30,13,17,19.40
2015,05,30,13,18,19.30
2015,05,30,13,19,19.20
2015,05,30,13,20,19.30
2015,05,30,13,21,19.30
2015,05,30,13,22,19.40
2015,05,30,13,23,19.60
2015,05,30,13,24,19.70
2015,05,30,13,25,19.80
2015,05,30,13,26,19.80
2015,05,30,13,27,19.90
2015,05,30,13,28,19.90
2015,05,30,13,29,20.00
2015,05,30,13,30,20.10
2015,05,30,13,31,20.20
2015,05,30,13,32,20.20
2015,05,30,13,33,20.30
2015,05,30,13,34,20.40
2015,05,30,13,35,20.40
2015,05,30,13,36,20.30
2015,05,30,13,37,20.30
2015,05,30,13,38,20.30
2015,05,30,13,39,20.30
2015,05,30,13,40,20.30
2015,05,30,13,41,20.30
2015,05,30,13,42,20.40
2015,05,30,13,43,20.50
2015,05,30,13,44,20.50
2015,05,30,13,45,20.60
2015,05,30,13,46,20.60
2015,05,30,13,47,20.60
2015,05,30,13,48,20.70
2015,05,30,13,49,20.80
2015,05,30,13,50,20.90
2015,05,30,13,51,21.00
2015,05,30,13,52,21.00
2015,05,30,13,53,21.10
2015,05,30,13,54,21.20
2015,05,30,13,55,21.20
2015,05,30,13,56,21.20
2015,05,30,13,57,21.20
2015,05,30,13,58,21.10
2015,05,30,13,59,20.90
2015,05,30,14,00,20.90
2015,05,30,14,01,20.80
2015,05,30,14,02,20.90
2015,05,30,14,03,20.90
2015,05,30,14,04,21.00
2015,05,30,14,05,21.00
2015,05,30,14,06,21.00
2015,05,30,14,07,21.00
2015,05,30,14,08,21.00
2015,05,30,14,09,21.00
2015,05,30,14,10,21.00
2015,05,30,14,11,21.10
2015,05,30,14,12,21.20
2015,05,30,14,13,21.20
2015,05,30,14,14,21.20
2015,05,30,14,15,21.20
2015,05,30,14,16,21.20
2015,05,30,14,17,21.10
2015,05,30,14,18,21.10
2015,05,30,14,19,21.00
2015,05,30,14,20,21.00
2015,05,30,14,21,20.90
2015,05,30,14,22,20.90
2015,05,30,14,23,20.90
2015,05,30,14,24,20.90
2015,05,30,14,25,20.90
2015,05,30,14,26,20.90
2015,05,30,14,27,20.90
2015,05,30,14,28,20.90
2015,05,30,14,29,20.90
2015,05,30,14,30,20.90
2015,05,30,14,31,20.90
2015,05,30,14,32,20.90
2015,05,30,14,33,20.90
2015,05,30,14,34,20.90
2015,05,30,14,35,20.90
2015,05,30,14,36,21.00
2015,05,30,14,37,21.00
2015,05,30,14,38,21.10
2015,05,30,14,39,21.20
2015,05,30,14,40,21.20
2015,05,30,14,41,21.20
2015,05,30,14,42,21.20
2015,05,30,14,43,21.20
2015,05,30,14,44,21.20
2015,05,30,14,45,21.30
2015,05,30,14,46,21.30
2015,05,30,14,47,21.40
2015,05,30,14,48,21.50
2015,05,30,14,49,21.40
2015,05,30,14,50,21.40
2015,05,30,14,51,21.30
2015,05,30,14,52,21.30
2015,05,30,14,53,21.40
2015,05,30,14,54,21.40
2015,05,30,14,55,21.40
2015,05,30,14,56,21.40
2015,05,30,14,57,21.40
2015,05,30,14,58,21.50
2015,05,30,14,59,21.60
2015,05,30,15,00,21.70
2015,05,30,15,01,21.70
2015,05,30,15,02,21.70
2015,05,30,15,03,21.70
2015,05,30,15,04,21.70
2015,05,30,15,05,21.70
2015,05,30,15,06,21.70
2015,05,30,15,07,21.70
2015,05,30,15,08,21.80
2015,05,30,15,09,21.90
2015,05,30,15,10,21.90
2015,05,30,15,11,22.00
2015,05,30,15,12,22.10
2015,05,30,15,13,22.10
2015,05,30,15,14,22.10
2015,05,30,15,15,22.20
2015,05,30,15,16,22.20
2015,05,30,15,17,22.30
2015,05,30,15,18,22.30
2015,05,30,15,19,22.30
2015,05,30,15,20,22.40
2015,05,30,15,21,22.40
2015,05,30,15,22,22.50
2015,05,30,15,23,22.50
2015,05,30,15,24,22.50
2015,05,30,15,25,22.50
2015,05,30,15,26,22.50
2015,05,30,15,27,22.50
2015,05,30,15,28,22.50
2015,05,30,15,29,22.50
2015,05,30,15,30,22.50
2015,05,30,15,31,22.50
2015,05,30,15,32,22.50
2015,05,30,15,33,22.60
2015,05,30,15,34,22.70
2015,05,30,15,35,22.70
2015,05,30,15,36,22.70
2015,05,30,15,37,22.60
2015,05,30,15,38,22.60
2015,05,30,15,39,22.60
2015,05,30,15,40,22.60
2015,05,30,15,41,22.60
2015,05,30,15,42,22.60
2015,05,30,15,43,22.60
2015,05,30,15,44,22.60
2015,05,30,15,45,22.70
2015,05,30,15,46,22.70
2015,05,30,15,47,22.70
2015,05,30,15,48,22.70
2015,05,30,15,49,22.60
2015,05,30,15,50,22.60
2015,05,30,15,51,22.60
2015,05,30,15,52,22.50
2015,05,30,15,53,22.50
2015,05,30,15,54,22.40
2015,05,30,15,55,22.30
2015,05,30,15,56,22.30
2015,05,30,15,57,22.40
2015,05,30,15,58,22.50
2015,05,30,15,59,22.60
2015,05,30,16,00,22.60
2015,05,30,16,01,22.60
2015,05,30,16,02,22.70
2015,05,30,16,03,22.70
2015,05,30,16,04,22.70
2015,05,30,16,05,22.70
2015,05,30,16,06,22.70
2015,05,30,16,07,22.70
2015,05,30,16,08,22.60
2015,05,30,16,09,22.70
2015,05,30,16,10,22.70
2015,05,30,16,11,22.70
2015,05,30,16,12,22.70
2015,05,30,16,13,22.70
2015,05,30,16,14,22.70
2015,05,30,16,15,22.70
2015,05,30,16,16,22.80
2015,05,30,16,17,22.90
2015,05,30,16,18,22.90
2015,05,30,16,19,22.90
2015,05,30,16,20,23.00
2015,05,30,16,21,23.00
2015,05,30,16,22,23.10
2015,05,30,16,23,23.10
2015,05,30,16,24,23.10
2015,05,30,16,25,23.10
2015,05,30,16,26,23.10
2015,05,30,16,27,23.10
2015,05,30,16,28,23.10
2015,05,30,16,29,23.10
2015,05,30,16,30,23.10
2015,05,30,16,31,23.10
2015,05,30,16,32,23.10
2015,05,30,16,33,23.10
2015,05,30,16,34,23.10
2015,05,30,16,35,23.10
2015,05,30,16,36,23.10
2015,05,30,16,37,23.10
2015,05,30,16,38,23.10
2015,05,30,16,39,23.00
2015,05,30,16,40,23.00
2015,05,30,16,41,23.10
2015,05,30,16,42,23.00
2015,05,30,16,43,23.00
2015,05,30,16,44,22.90
2015,05,30,16,45,22.80
2015,05,30,16,46,22.80
2015,05,30,16,47,22.70
2015,05,30,16,48,22.70
2015,05,30,16,49,22.60
2015,05,30,16,50,22.50
2015,05,30,16,51,22.50
2015,05,30,16,52,22.50
2015,05,30,16,53,22.60
2015,05,30,16,54,22.60
2015,05,30,16,55,22.60
2015,05,30,16,56,22.60
2015,05,30,16,57,22.50
2015,05,30,16,58,22.40
2015,05,30,16,59,22.30
2015,05,30,17,00,22.20
2015,05,30,17,01,22.10
2015,05,30,17,02,21.90
2015,05,30,17,03,21.90
2015,05,30,17,04,21.90
2015,05,30,17,05,21.80
2015,05,30,17,06,21.80
2015,05,30,17,07,21.80
2015,05,30,17,08,21.80
2015,05,30,17,09,21.80
2015,05,30,17,10,21.80
2015,05,30,17,11,21.80
2015,05,30,17,12,21.70
2015,05,30,17,13,21.70
2015,05,30,17,14,21.60
2015,05,30,17,15,21.60
2015,05,30,17,16,21.60
2015,05,30,17,17,21.60
2015,05,30,17,18,21.60
2015,05,30,17,19,21.60
2015,05,30,17,20,21.50
2015,05,30,17,21,21.60
2015,05,30,17,22,21.50
2015,05,30,17,23,21.50
2015,05,30,17,24,21.50